VSP945 SBSN-SBBE

Flight info

Callsign VSP945
Flight time 1h 2m
Altitude 35000
Route EMAKE DCT PAKUT
Aircraft B738/M-SDE2E3FGHIRWXY/LB1

Departure

Time 2026-04-29 00:22
Airport Santarém - Maestro Wilson Fonseca International Airport (SBSN)

Arrival

Time 2026-04-29 01:25
Airport Val de Cans/Júlio Cezar Ribeiro International Airport (SBBE)
Time Latitude Longitude Altitude Speed Heading
2026-04-29 00:06 -2.42409 -54.78563 207 ft 0 kts 130°
2026-04-29 00:09 -2.42406 -54.78566 207 ft 2 kts 130°
2026-04-29 00:10 -2.42396 -54.78577 207 ft 2 kts 130°
2026-04-29 00:10 -2.42391 -54.78584 207 ft 1 kts 121°
2026-04-29 00:10 -2.42390 -54.78596 207 ft 1 kts 58°
2026-04-29 00:10 -2.42395 -54.78601 207 ft 1 kts 34°
2026-04-29 00:11 -2.42398 -54.78604 207 ft 0 kts 39°
2026-04-29 00:12 -2.42395 -54.78601 207 ft 1 kts 38°
2026-04-29 00:13 -2.42382 -54.78592 207 ft 3 kts 24°
2026-04-29 00:13 -2.42357 -54.78594 207 ft 4 kts 333°
2026-04-29 00:13 -2.42326 -54.78615 207 ft 6 kts 323°
2026-04-29 00:13 -2.42290 -54.78647 207 ft 6 kts 317°
2026-04-29 00:14 -2.42261 -54.78675 207 ft 5 kts 315°
2026-04-29 00:14 -2.42238 -54.78698 207 ft 3 kts 315°
2026-04-29 00:14 -2.42219 -54.78717 207 ft 4 kts 315°
2026-04-29 00:14 -2.42199 -54.78737 207 ft 4 kts 315°
2026-04-29 00:15 -2.42179 -54.78758 207 ft 4 kts 304°
2026-04-29 00:15 -2.42169 -54.78782 207 ft 3 kts 279°
2026-04-29 00:15 -2.42168 -54.78809 207 ft 5 kts 267°
2026-04-29 00:15 -2.42173 -54.78855 207 ft 7 kts 262°
2026-04-29 00:16 -2.42183 -54.78916 207 ft 10 kts 261°
2026-04-29 00:16 -2.42196 -54.78994 207 ft 12 kts 261°
2026-04-29 00:16 -2.42210 -54.79083 207 ft 13 kts 260°
2026-04-29 00:16 -2.42226 -54.79182 207 ft 14 kts 260°
2026-04-29 00:17 -2.42244 -54.79287 207 ft 15 kts 261°
2026-04-29 00:17 -2.42263 -54.79400 207 ft 16 kts 261°
2026-04-29 00:17 -2.42283 -54.79520 207 ft 18 kts 261°
2026-04-29 00:17 -2.42304 -54.79647 207 ft 19 kts 261°
2026-04-29 00:18 -2.42325 -54.79778 207 ft 19 kts 260°
2026-04-29 00:18 -2.42347 -54.79908 207 ft 18 kts 261°
2026-04-29 00:18 -2.42367 -54.80033 207 ft 17 kts 261°
2026-04-29 00:18 -2.42386 -54.80148 207 ft 14 kts 259°
2026-04-29 00:19 -2.42403 -54.80235 207 ft 10 kts 252°
2026-04-29 00:19 -2.42440 -54.80282 207 ft 7 kts 226°
2026-04-29 00:19 -2.42452 -54.80320 207 ft 4 kts 297°
2026-04-29 00:19 -2.42433 -54.80333 207 ft 2 kts 360°
2026-04-29 00:20 -2.42423 -54.80328 207 ft 1 kts 44°
2026-04-29 00:20 -2.42419 -54.80321 207 ft 1 kts 62°
2026-04-29 00:20 -2.42411 -54.80300 207 ft 4 kts 77°
2026-04-29 00:20 -2.42406 -54.80268 207 ft 9 kts 80°
2026-04-29 00:21 -2.42358 -54.79990 207 ft 77 kts 80°
2026-04-29 00:21 -2.42240 -54.79241 207 ft 139 kts 81°
2026-04-29 00:21 -2.42062 -54.78115 239 ft 184 kts 81°
2026-04-29 00:21 -2.41861 -54.76763 477 ft 211 kts 82°
2026-04-29 00:22 -2.41687 -54.75217 773 ft 233 kts 85°
2026-04-29 00:22 -2.41534 -54.73558 1163 ft 240 kts 80°
2026-04-29 00:22 -2.41174 -54.71900 1686 ft 251 kts 77°
2026-04-29 00:22 -2.40803 -54.70184 2191 ft 258 kts 79°
2026-04-29 00:23 -2.40483 -54.68425 2690 ft 259 kts 80°
2026-04-29 00:23 -2.40187 -54.66647 3191 ft 260 kts 81°
2026-04-29 00:23 -2.39895 -54.64847 3767 ft 260 kts 81°
2026-04-29 00:23 -2.39608 -54.63074 4396 ft 263 kts 81°
2026-04-29 00:24 -2.39317 -54.61272 5021 ft 265 kts 81°
2026-04-29 00:24 -2.39022 -54.59455 5648 ft 266 kts 81°
2026-04-29 00:24 -2.38725 -54.57630 6274 ft 267 kts 81°
2026-04-29 00:24 -2.38426 -54.55788 6903 ft 269 kts 81°
2026-04-29 00:25 -2.38128 -54.53957 7524 ft 270 kts 81°
2026-04-29 00:25 -2.37826 -54.52098 8151 ft 272 kts 81°
2026-04-29 00:25 -2.37406 -54.50263 8772 ft 274 kts 74°
2026-04-29 00:25 -2.36806 -54.48460 9398 ft 276 kts 72°
2026-04-29 00:26 -2.36161 -54.46645 10026 ft 278 kts 72°
2026-04-29 00:26 -2.35502 -54.44793 10417 ft 294 kts 72°
2026-04-29 00:26 -2.34793 -54.42785 10518 ft 320 kts 72°
2026-04-29 00:26 -2.34026 -54.40608 10714 ft 340 kts 72°
2026-04-29 00:27 -2.33230 -54.38347 11352 ft 346 kts 72°
2026-04-29 00:27 -2.32437 -54.36095 12043 ft 349 kts 72°
2026-04-29 00:27 -2.31630 -54.33800 12701 ft 353 kts 72°
2026-04-29 00:27 -2.30818 -54.31494 13377 ft 356 kts 72°
2026-04-29 00:28 -2.29991 -54.29142 14039 ft 360 kts 72°
2026-04-29 00:28 -2.29156 -54.26767 14698 ft 364 kts 72°
2026-04-29 00:28 -2.28321 -54.24392 15344 ft 368 kts 72°
2026-04-29 00:28 -2.27470 -54.21974 15982 ft 372 kts 72°
2026-04-29 00:29 -2.26608 -54.19523 16603 ft 375 kts 72°
2026-04-29 00:29 -2.25875 -54.17006 17192 ft 378 kts 79°
2026-04-29 00:29 -2.25405 -54.14436 17792 ft 381 kts 82°
2026-04-29 00:29 -2.25019 -54.11821 18357 ft 384 kts 83°
2026-04-29 00:30 -2.24647 -54.09170 18916 ft 388 kts 83°
2026-04-29 00:30 -2.24269 -54.06483 19470 ft 392 kts 83°
2026-04-29 00:30 -2.23884 -54.03763 20013 ft 395 kts 83°
2026-04-29 00:30 -2.23497 -54.01042 20544 ft 398 kts 83°
2026-04-29 00:31 -2.23105 -53.98287 21055 ft 402 kts 83°
2026-04-29 00:31 -2.22715 -53.95545 21542 ft 405 kts 83°
2026-04-29 00:31 -2.22317 -53.92750 22021 ft 408 kts 83°
2026-04-29 00:31 -2.21915 -53.89933 22489 ft 412 kts 83°
2026-04-29 00:32 -2.21507 -53.87074 22962 ft 415 kts 83°
2026-04-29 00:32 -2.21102 -53.84241 23401 ft 417 kts 83°
2026-04-29 00:32 -2.20692 -53.81367 23806 ft 420 kts 83°
2026-04-29 00:32 -2.20274 -53.78445 24206 ft 423 kts 83°
2026-04-29 00:33 -2.19858 -53.75530 24591 ft 426 kts 83°
2026-04-29 00:33 -2.19439 -53.72596 24986 ft 428 kts 83°
2026-04-29 00:33 -2.19019 -53.69658 25351 ft 431 kts 83°
2026-04-29 00:33 -2.18593 -53.66678 25723 ft 434 kts 83°
2026-04-29 00:34 -2.18166 -53.63696 26076 ft 436 kts 83°
2026-04-29 00:34 -2.17737 -53.60696 26418 ft 439 kts 83°
2026-04-29 00:34 -2.17304 -53.57666 26754 ft 441 kts 83°
2026-04-29 00:34 -2.16872 -53.54647 27091 ft 443 kts 83°
2026-04-29 00:35 -2.16432 -53.51570 27415 ft 446 kts 83°
2026-04-29 00:35 -2.15995 -53.48515 27722 ft 448 kts 83°
2026-04-29 00:35 -2.15553 -53.45431 28020 ft 450 kts 83°
2026-04-29 00:35 -2.15108 -53.42317 28330 ft 452 kts 83°
2026-04-29 00:36 -2.14662 -53.39204 28631 ft 454 kts 83°
2026-04-29 00:36 -2.14218 -53.36103 28971 ft 455 kts 83°
2026-04-29 00:36 -2.13770 -53.32975 29357 ft 455 kts 83°
2026-04-29 00:36 -2.13321 -53.29841 29740 ft 454 kts 83°
2026-04-29 00:37 -2.12876 -53.26733 30122 ft 453 kts 83°
2026-04-29 00:37 -2.12428 -53.23607 30485 ft 453 kts 83°
2026-04-29 00:37 -2.11984 -53.20515 30860 ft 452 kts 83°
2026-04-29 00:37 -2.11541 -53.17422 31208 ft 452 kts 83°
2026-04-29 00:38 -2.11094 -53.14304 31559 ft 451 kts 83°
2026-04-29 00:38 -2.10651 -53.11222 31903 ft 450 kts 83°
2026-04-29 00:38 -2.10210 -53.08144 32242 ft 449 kts 83°
2026-04-29 00:38 -2.09765 -53.05041 32572 ft 449 kts 83°
2026-04-29 00:39 -2.09328 -53.01996 32902 ft 448 kts 83°
2026-04-29 00:39 -2.08884 -52.98900 33209 ft 447 kts 83°
2026-04-29 00:39 -2.08441 -52.95815 33514 ft 447 kts 83°
2026-04-29 00:39 -2.08006 -52.92780 33816 ft 446 kts 83°
2026-04-29 00:40 -2.07567 -52.89726 34106 ft 446 kts 83°
2026-04-29 00:40 -2.07123 -52.86632 34413 ft 445 kts 83°
2026-04-29 00:40 -2.06686 -52.83590 34694 ft 444 kts 83°
2026-04-29 00:40 -2.06246 -52.80524 34907 ft 444 kts 83°
2026-04-29 00:41 -2.05808 -52.77469 34914 ft 449 kts 83°
2026-04-29 00:41 -2.04919 -52.71277 34913 ft 455 kts 83°
2026-04-29 00:42 -2.04016 -52.64994 34911 ft 453 kts 83°
2026-04-29 00:42 -2.03123 -52.58780 34911 ft 452 kts 83°
2026-04-29 00:43 -2.02233 -52.52587 34914 ft 452 kts 83°
2026-04-29 00:43 -2.01340 -52.46378 34921 ft 453 kts 83°
2026-04-29 00:44 -2.00443 -52.40140 34928 ft 453 kts 83°
2026-04-29 00:44 -1.99550 -52.33933 34935 ft 453 kts 83°
2026-04-29 00:45 -1.98657 -52.27724 34939 ft 453 kts 83°
2026-04-29 00:45 -1.97763 -52.21513 34939 ft 453 kts 83°
2026-04-29 00:46 -1.96863 -52.15264 34939 ft 453 kts 83°
2026-04-29 00:46 -1.95972 -52.09075 34939 ft 453 kts 83°
2026-04-29 00:47 -1.95076 -52.02855 34939 ft 453 kts 83°
2026-04-29 00:47 -1.94175 -51.96603 34939 ft 453 kts 83°
2026-04-29 00:48 -1.93281 -51.90395 34939 ft 453 kts 83°
2026-04-29 00:48 -1.92382 -51.84159 34939 ft 453 kts 83°
2026-04-29 00:49 -1.91488 -51.77963 34939 ft 453 kts 83°
2026-04-29 00:49 -1.90594 -51.71766 34939 ft 453 kts 83°
2026-04-29 00:50 -1.89692 -51.65513 34939 ft 453 kts 83°
2026-04-29 00:50 -1.88797 -51.59309 34939 ft 453 kts 83°
2026-04-29 00:51 -1.87901 -51.53101 34939 ft 453 kts 83°
2026-04-29 00:51 -1.87005 -51.46898 34939 ft 453 kts 83°
2026-04-29 00:52 -1.86103 -51.40650 34939 ft 453 kts 83°
2026-04-29 00:52 -1.85207 -51.34449 34939 ft 453 kts 83°
2026-04-29 00:53 -1.84308 -51.28232 34939 ft 453 kts 83°
2026-04-29 00:53 -1.83408 -51.22001 34939 ft 453 kts 83°
2026-04-29 00:54 -1.82511 -51.15801 34939 ft 453 kts 83°
2026-04-29 00:54 -1.81613 -51.09587 34939 ft 453 kts 83°
2026-04-29 00:55 -1.80709 -51.03341 34939 ft 454 kts 83°
2026-04-29 00:55 -1.80032 -50.97074 34939 ft 455 kts 88°
2026-04-29 00:56 -1.79756 -50.90744 34939 ft 457 kts 89°
2026-04-29 00:56 -1.79503 -50.84403 34939 ft 458 kts 89°
2026-04-29 00:57 -1.79214 -50.78064 34938 ft 458 kts 89°
2026-04-29 00:57 -1.78885 -50.71696 34939 ft 458 kts 88°
2026-04-29 00:58 -1.78542 -50.65380 34939 ft 458 kts 88°
2026-04-29 00:58 -1.78211 -50.59018 34939 ft 458 kts 89°
2026-04-29 00:59 -1.77929 -50.52703 34939 ft 458 kts 89°
2026-04-29 00:59 -1.77711 -50.46362 34939 ft 457 kts 90°
2026-04-29 01:00 -1.77550 -50.40024 34939 ft 457 kts 90°
2026-04-29 01:00 -1.77427 -50.33648 34939 ft 457 kts 90°
2026-04-29 01:01 -1.77333 -50.27335 34939 ft 457 kts 91°
2026-04-29 01:01 -1.77253 -50.20993 34937 ft 457 kts 90°
2026-04-29 01:01 -1.77195 -50.17795 34730 ft 458 kts 90°
2026-04-29 01:02 -1.77127 -50.14635 34051 ft 456 kts 90°
2026-04-29 01:02 -1.76984 -50.11509 33232 ft 457 kts 86°
2026-04-29 01:02 -1.76650 -50.08313 32351 ft 458 kts 85°
2026-04-29 01:02 -1.76261 -50.05181 31439 ft 459 kts 84°
2026-04-29 01:03 -1.75859 -50.02061 30764 ft 454 kts 84°
2026-04-29 01:03 -1.75453 -49.98947 30050 ft 451 kts 84°
2026-04-29 01:03 -1.75046 -49.95852 29424 ft 445 kts 84°
2026-04-29 01:03 -1.74640 -49.92817 28817 ft 439 kts 84°
2026-04-29 01:04 -1.74228 -49.89825 28209 ft 434 kts 83°
2026-04-29 01:04 -1.73809 -49.86881 27610 ft 429 kts 83°
2026-04-29 01:04 -1.73377 -49.83939 27011 ft 424 kts 83°
2026-04-29 01:04 -1.72942 -49.81073 26423 ft 419 kts 83°
2026-04-29 01:05 -1.72503 -49.78238 25838 ft 414 kts 83°
2026-04-29 01:05 -1.72058 -49.75415 25250 ft 410 kts 83°
2026-04-29 01:05 -1.71615 -49.72617 24664 ft 405 kts 83°
2026-04-29 01:05 -1.71181 -49.69861 24089 ft 401 kts 83°
2026-04-29 01:06 -1.70755 -49.67120 23511 ft 397 kts 83°
2026-04-29 01:06 -1.70345 -49.64410 22938 ft 393 kts 83°
2026-04-29 01:06 -1.69953 -49.61731 22371 ft 388 kts 83°
2026-04-29 01:06 -1.69582 -49.59079 21812 ft 384 kts 84°
2026-04-29 01:07 -1.69232 -49.56466 21275 ft 380 kts 84°
2026-04-29 01:07 -1.68899 -49.53857 20718 ft 376 kts 84°
2026-04-29 01:07 -1.68580 -49.51271 20161 ft 373 kts 85°
2026-04-29 01:07 -1.68273 -49.48733 19614 ft 369 kts 85°
2026-04-29 01:08 -1.67975 -49.46187 19063 ft 366 kts 85°
2026-04-29 01:08 -1.67708 -49.43679 18521 ft 362 kts 86°
2026-04-29 01:08 -1.67486 -49.41199 17980 ft 359 kts 86°
2026-04-29 01:08 -1.67242 -49.38742 17445 ft 356 kts 85°
2026-04-29 01:09 -1.66956 -49.36279 16907 ft 353 kts 84°
2026-04-29 01:09 -1.66650 -49.33863 16375 ft 350 kts 84°
2026-04-29 01:09 -1.66337 -49.31477 15844 ft 347 kts 84°
2026-04-29 01:09 -1.66021 -49.29120 15321 ft 344 kts 84°
2026-04-29 01:10 -1.65703 -49.26763 14800 ft 341 kts 84°
2026-04-29 01:10 -1.65386 -49.24431 14274 ft 338 kts 84°
2026-04-29 01:10 -1.65072 -49.22123 13760 ft 335 kts 84°
2026-04-29 01:10 -1.64759 -49.19824 13240 ft 332 kts 84°
2026-04-29 01:11 -1.64450 -49.17552 12728 ft 330 kts 84°
2026-04-29 01:11 -1.64142 -49.15294 12218 ft 327 kts 84°
2026-04-29 01:11 -1.63835 -49.13041 11709 ft 326 kts 83°
2026-04-29 01:11 -1.63532 -49.10811 11230 ft 323 kts 83°
2026-04-29 01:12 -1.63231 -49.08611 11015 ft 312 kts 83°
2026-04-29 01:12 -1.62944 -49.06520 10882 ft 300 kts 83°
2026-04-29 01:12 -1.62664 -49.04474 10683 ft 292 kts 83°
2026-04-29 01:12 -1.62393 -49.02494 10472 ft 285 kts 83°
2026-04-29 01:13 -1.62126 -49.00542 10261 ft 279 kts 83°
2026-04-29 01:13 -1.61868 -48.98653 10055 ft 273 kts 83°
2026-04-29 01:13 -1.61614 -48.96799 9821 ft 269 kts 83°
2026-04-29 01:13 -1.61361 -48.94941 9461 ft 270 kts 83°
2026-04-29 01:14 -1.61107 -48.93082 9122 ft 269 kts 83°
2026-04-29 01:14 -1.60853 -48.91230 8790 ft 269 kts 83°
2026-04-29 01:14 -1.60601 -48.89384 8463 ft 268 kts 83°
2026-04-29 01:14 -1.60348 -48.87535 8133 ft 268 kts 83°
2026-04-29 01:15 -1.60098 -48.85709 7806 ft 268 kts 83°
2026-04-29 01:15 -1.59848 -48.83887 7504 ft 258 kts 83°
2026-04-29 01:15 -1.59610 -48.82151 7163 ft 242 kts 83°
2026-04-29 01:15 -1.59389 -48.80541 6859 ft 228 kts 83°
2026-04-29 01:16 -1.59183 -48.79036 6607 ft 211 kts 83°
2026-04-29 01:16 -1.58991 -48.77638 6336 ft 198 kts 83°
2026-04-29 01:16 -1.58809 -48.76304 6106 ft 185 kts 83°
2026-04-29 01:16 -1.58639 -48.75060 5894 ft 179 kts 83°
2026-04-29 01:17 -1.58471 -48.73828 5682 ft 179 kts 83°
2026-04-29 01:17 -1.58303 -48.72596 5459 ft 179 kts 83°
2026-04-29 01:17 -1.58136 -48.71375 5229 ft 177 kts 83°
2026-04-29 01:17 -1.57969 -48.70157 5011 ft 176 kts 83°
2026-04-29 01:18 -1.57795 -48.68944 4745 ft 178 kts 82°
2026-04-29 01:18 -1.57089 -48.66641 4292 ft 176 kts 51°
2026-04-29 01:18 -1.56202 -48.65781 4111 ft 179 kts 44°
2026-04-29 01:19 -1.55280 -48.64962 3910 ft 179 kts 44°
2026-04-29 01:19 -1.54366 -48.64117 3698 ft 176 kts 46°
2026-04-29 01:19 -1.53498 -48.63284 3471 ft 170 kts 46°
2026-04-29 01:19 -1.52675 -48.62476 3244 ft 164 kts 47°
2026-04-29 01:20 -1.51874 -48.61680 3057 ft 163 kts 47°
2026-04-29 01:20 -1.51069 -48.60873 2856 ft 163 kts 47°
2026-04-29 01:20 -1.50278 -48.60078 2650 ft 162 kts 47°
2026-04-29 01:20 -1.49500 -48.59295 2618 ft 151 kts 47°
2026-04-29 01:21 -1.48757 -48.58546 2626 ft 152 kts 47°
2026-04-29 01:21 -1.48011 -48.57793 2614 ft 152 kts 47°
2026-04-29 01:21 -1.47263 -48.57037 2430 ft 151 kts 47°
2026-04-29 01:21 -1.46543 -48.56312 2253 ft 145 kts 47°
2026-04-29 01:22 -1.45825 -48.55587 2073 ft 149 kts 47°
2026-04-29 01:22 -1.45095 -48.54851 1847 ft 148 kts 47°
2026-04-29 01:22 -1.44366 -48.54118 1642 ft 146 kts 47°
2026-04-29 01:22 -1.43654 -48.53405 1445 ft 146 kts 47°
2026-04-29 01:23 -1.42940 -48.52685 1248 ft 145 kts 47°
2026-04-29 01:23 -1.42236 -48.51974 1053 ft 145 kts 47°
2026-04-29 01:23 -1.41529 -48.51260 858 ft 144 kts 47°
2026-04-29 01:23 -1.40828 -48.50552 666 ft 144 kts 47°
2026-04-29 01:24 -1.40122 -48.49839 472 ft 144 kts 47°
2026-04-29 01:24 -1.39418 -48.49128 278 ft 144 kts 47°
2026-04-29 01:24 -1.38715 -48.48416 111 ft 142 kts 48°
2026-04-29 01:24 -1.38074 -48.47746 64 ft 105 kts 45°
2026-04-29 01:25 -1.37766 -48.47443 63 ft 26 kts 35°
2026-04-29 01:25 -1.37699 -48.47412 63 ft 12 kts 54°
2026-04-29 01:25 -1.37733 -48.47364 63 ft 8 kts 198°
2026-04-29 01:25 -1.37758 -48.47398 63 ft 10 kts 243°
2026-04-29 01:26 -1.37795 -48.47463 63 ft 10 kts 235°
2026-04-29 01:26 -1.37841 -48.47518 63 ft 10 kts 226°
2026-04-29 01:26 -1.37889 -48.47567 63 ft 9 kts 225°
2026-04-29 01:26 -1.37937 -48.47609 63 ft 8 kts 202°
2026-04-29 01:27 -1.38000 -48.47622 63 ft 9 kts 186°
2026-04-29 01:27 -1.38066 -48.47628 63 ft 9 kts 185°
2026-04-29 01:27 -1.38134 -48.47634 63 ft 9 kts 184°
2026-04-29 01:27 -1.38199 -48.47639 63 ft 9 kts 185°
2026-04-29 01:28 -1.38262 -48.47644 63 ft 9 kts 185°
2026-04-29 01:28 -1.38331 -48.47650 63 ft 10 kts 185°
2026-04-29 01:28 -1.38400 -48.47656 63 ft 9 kts 185°
2026-04-29 01:28 -1.38468 -48.47662 63 ft 9 kts 186°
2026-04-29 01:29 -1.38536 -48.47668 63 ft 10 kts 184°
2026-04-29 01:29 -1.38607 -48.47674 63 ft 9 kts 185°
2026-04-29 01:29 -1.38657 -48.47699 63 ft 7 kts 244°
2026-04-29 01:29 -1.38663 -48.47745 63 ft 5 kts 269°
2026-04-29 01:30 -1.38672 -48.47775 63 ft 3 kts 227°
2026-04-29 01:30 -1.38688 -48.47785 63 ft 2 kts 201°
2026-04-29 01:30 -1.38710 -48.47790 63 ft 4 kts 190°
2026-04-29 01:30 -1.38743 -48.47795 63 ft 5 kts 186°
2026-04-29 01:31 -1.38777 -48.47798 63 ft 5 kts 184°
2026-04-29 01:31 -1.38817 -48.47801 63 ft 5 kts 184°
2026-04-29 01:31 -1.38853 -48.47804 63 ft 4 kts 185°
2026-04-29 01:31 -1.38885 -48.47807 63 ft 4 kts 185°
2026-04-29 01:32 -1.38916 -48.47809 63 ft 4 kts 185°
2026-04-29 01:32 -1.38944 -48.47812 63 ft 3 kts 185°
2026-04-29 01:32 -1.38969 -48.47814 63 ft 3 kts 185°
2026-04-29 01:32 -1.38989 -48.47816 63 ft 2 kts 185°
2026-04-29 01:33 -1.39010 -48.47818 63 ft 3 kts 186°
2026-04-29 01:33 -1.39035 -48.47821 63 ft 3 kts 186°
2026-04-29 01:33 -1.39058 -48.47823 63 ft 3 kts 185°
2026-04-29 01:33 -1.39078 -48.47825 63 ft 2 kts 191°
2026-04-29 01:34 -1.39091 -48.47835 63 ft 2 kts 231°
2026-04-29 01:34 -1.39096 -48.47849 63 ft 1 kts 255°
2026-04-29 01:34 -1.39097 -48.47862 63 ft 2 kts 268°
2026-04-29 01:34 -1.39097 -48.47874 63 ft 1 kts 275°
2026-04-29 01:35 -1.39096 -48.47884 63 ft 1 kts 275°
2026-04-29 01:35 -1.39096 -48.47886 63 ft 0 kts 275°